When you browse on this site, cookies collect data to enhance your experience and personalize the content and advertising you see.
Visit our Privacy Policy to learn more. By continuing to use the site, you agree to this use of cookies and data.
  • In Schweiz
  • Länderverzeichnis
  • Für 7 Tage
  • Wassertemperatur
  • Wetterkarte
  • Widgets
  • user-avatar
    Anmelden

    Stündliche Wetter Skadino

    Heute, 18 August, Sonntag

    Zeit Temperatur Niederschläge Wind Luftdruck Luftfeuchtigkeit
    00:00 +12°C° 0 mm 1 m/S 755 mmHg 82%
    01:00 +12°C° 0 mm 1 m/S 755 mmHg 84%
    02:00 +10°C° 0 mm 0 m/S 755 mmHg 86%
    03:00 +11°C° 0 mm 1 m/S 755 mmHg 87%
    04:00 +11°C° 0 mm 1 m/S 755 mmHg 87%
    05:00 +11°C° 0 mm 1 m/S 754 mmHg 88%
    06:00 +13°C° 0 mm 1 m/S 754 mmHg 82%
    07:00 +15°C° 0 mm 1 m/S 754 mmHg 77%
    08:00 +18°C° 0 mm 1 m/S 754 mmHg 71%
    09:00 +19°C° 0 mm 1 m/S 754 mmHg 67%
    10:00 +21°C° 0 mm 1 m/S 754 mmHg 62%
    11:00 +23°C° 0 mm 1 m/S 754 mmHg 58%
    12:00 +23°C° 0 mm 1 m/S 753 mmHg 55%
    13:00 +24°C° 0 mm 1 m/S 753 mmHg 53%
    14:00 +23°C° 0 mm 0 m/S 753 mmHg 51%
    15:00 +22°C° 0 mm 0 m/S 753 mmHg 52%
    16:00 +22°C° 0 mm 0 m/S 753 mmHg 54%
    17:00 +22°C° 0 mm 0 m/S 753 mmHg 56%
    18:00 +19°C° 0 mm 0 m/S 753 mmHg 62%
    19:00 +19°C° 0 mm 1 m/S 753 mmHg 69%
    20:00 +16°C° 0 mm 1 m/S 753 mmHg 76%
    21:00 +16°C° 0 mm 1 m/S 753 mmHg 78%
    22:00 +15°C° 0 mm 1 m/S 753 mmHg 81%
    23:00 +15°C° 0 mm 2 m/S 753 mmHg 84%

    Morgen, 19 August, Montag

    Zeit Temperatur Niederschläge Wind Luftdruck Luftfeuchtigkeit
    00:00 +15°C° 0 mm 2 m/S 753 mmHg 85%
    01:00 +14°C° 0 mm 2 m/S 753 mmHg 86%
    02:00 +14°C° 0 mm 2 m/S 753 mmHg 87%
    03:00 +14°C° 0 mm 2 m/S 753 mmHg 86%
    04:00 +13°C° 0 mm 3 m/S 752 mmHg 84%
    05:00 +13°C° 0 mm 3 m/S 752 mmHg 83%
    06:00 +16°C° 0 mm 3 m/S 752 mmHg 81%
    07:00 +17°C° 0 mm 3 m/S 752 mmHg 79%
    08:00 +19°C° 0 mm 4 m/S 752 mmHg 78%
    09:00 +20°C° 0 mm 4 m/S 752 mmHg 76%
    10:00 +21°C° 0 mm 4 m/S 752 mmHg 75%
    11:00 +22°C° 0 mm 4 m/S 752 mmHg 74%
    12:00 +22°C° 0.1 mm 3 m/S 752 mmHg 75%
    13:00 +22°C° 0.1 mm 3 m/S 752 mmHg 77%
    14:00 +22°C° 0.1 mm 3 m/S 753 mmHg 78%
    15:00 +22°C° 0.3 mm 3 m/S 753 mmHg 80%
    16:00 +24°C° 0.3 mm 2 m/S 753 mmHg 82%
    17:00 +24°C° 0.3 mm 2 m/S 753 mmHg 83%
    18:00 +23°C° 0.3 mm 2 m/S 753 mmHg 87%
    19:00 +20°C° 0.3 mm 2 m/S 754 mmHg 91%
    20:00 +19°C° 0.3 mm 2 m/S 754 mmHg 95%
    21:00 +18°C° 0 mm 2 m/S 755 mmHg 95%
    22:00 +18°C° 0 mm 2 m/S 755 mmHg 95%
    23:00 +18°C° 0 mm 1 m/S 755 mmHg 96%

    übermorgen, 20 August, Dienstag

    Zeit Temperatur Niederschläge Wind Luftdruck Luftfeuchtigkeit
    00:00 +16°C° 0 mm 1 m/S 756 mmHg 95%
    01:00 +16°C° 0 mm 1 m/S 756 mmHg 94%
    02:00 +14°C° 0 mm 0 m/S 757 mmHg 93%
    03:00 +14°C° 0 mm 0 m/S 757 mmHg 92%
    04:00 +14°C° 0 mm 0 m/S 757 mmHg 92%
    05:00 +14°C° 0 mm 0 m/S 758 mmHg 91%
    06:00 +15°C° 0 mm 0 m/S 758 mmHg 88%
    07:00 +18°C° 0 mm 1 m/S 758 mmHg 86%
    08:00 +20°C° 0 mm 1 m/S 758 mmHg 83%
    09:00 +21°C° 0.2 mm 1 m/S 759 mmHg 78%
    10:00 +22°C° 0.2 mm 1 m/S 759 mmHg 72%
    11:00 +24°C° 0.2 mm 1 m/S 759 mmHg 67%
    12:00 +24°C° 0.4 mm 2 m/S 759 mmHg 67%
    13:00 +24°C° 0.4 mm 2 m/S 759 mmHg 67%
    14:00 +24°C° 0.4 mm 2 m/S 759 mmHg 67%
    15:00 +24°C° 0.1 mm 1 m/S 759 mmHg 67%
    16:00 +24°C° 0.1 mm 1 m/S 759 mmHg 68%
    17:00 +24°C° 0.1 mm 1 m/S 759 mmHg 68%
    18:00 +22°C° 0 mm 1 m/S 759 mmHg 72%
    19:00 +20°C° 0 mm 1 m/S 759 mmHg 76%
    20:00 +19°C° 0 mm 1 m/S 759 mmHg 81%
    21:00 +18°C° 0 mm 1 m/S 760 mmHg 81%
    22:00 +16°C° 0 mm 1 m/S 760 mmHg 81%
    23:00 +16°C° 0 mm 1 m/S 760 mmHg 82%

    21 August, Mittwoch

    Zeit Temperatur Niederschläge Wind Luftdruck Luftfeuchtigkeit
    00:00 +15°C° 0 mm 1 m/S 760 mmHg 82%
    01:00 +14°C° 0 mm 0 m/S 760 mmHg 82%
    02:00 +13°C° 0 mm 0 m/S 761 mmHg 82%
    03:00 +14°C° 0 mm 1 m/S 761 mmHg 83%
    04:00 +14°C° 0 mm 1 m/S 761 mmHg 84%
    05:00 +14°C° 0 mm 1 m/S 761 mmHg 85%
    06:00 +15°C° 0 mm 1 m/S 761 mmHg 83%
    07:00 +18°C° 0 mm 1 m/S 761 mmHg 81%
    08:00 +19°C° 0 mm 1 m/S 761 mmHg 79%
    09:00 +20°C° 0 mm 1 m/S 761 mmHg 75%
    10:00 +22°C° 0 mm 1 m/S 761 mmHg 72%
    11:00 +23°C° 0 mm 1 m/S 760 mmHg 68%
    12:00 +22°C° 0.9 mm 1 m/S 760 mmHg 75%
    13:00 +20°C° 0.9 mm 2 m/S 760 mmHg 81%
    14:00 +19°C° 0.9 mm 2 m/S 760 mmHg 88%
    15:00 +18°C° 0.6 mm 2 m/S 760 mmHg 89%
    16:00 +19°C° 0.6 mm 1 m/S 760 mmHg 91%
    17:00 +18°C° 0.6 mm 1 m/S 759 mmHg 93%
    18:00 +16°C° 0.6 mm 1 m/S 760 mmHg 94%
    19:00 +16°C° 0.6 mm 1 m/S 760 mmHg 95%
    20:00 +15°C° 0.6 mm 1 m/S 760 mmHg 96%
    21:00 +15°C° 0.1 mm 1 m/S 760 mmHg 96%
    22:00 +15°C° 0.1 mm 1 m/S 760 mmHg 96%
    23:00 +15°C° 0.1 mm 1 m/S 760 mmHg 96%

    22 August, Donnerstag

    Zeit Temperatur Niederschläge Wind Luftdruck Luftfeuchtigkeit
    00:00 +14°C° 0 mm 2 m/S 760 mmHg 96%
    01:00 +14°C° 0 mm 2 m/S 760 mmHg 95%
    02:00 +13°C° 0 mm 2 m/S 760 mmHg 95%
    03:00 +13°C° 0 mm 2 m/S 760 mmHg 95%
    04:00 +12°C° 0 mm 2 m/S 761 mmHg 96%
    05:00 +10°C° 0 mm 2 m/S 761 mmHg 96%
    06:00 +12°C° 0 mm 2 m/S 761 mmHg 94%
    07:00 +14°C° 0 mm 2 m/S 761 mmHg 91%
    08:00 +15°C° 0 mm 2 m/S 761 mmHg 88%
    09:00 +16°C° 0 mm 2 m/S 761 mmHg 80%
    10:00 +18°C° 0 mm 2 m/S 761 mmHg 71%
    11:00 +19°C° 0 mm 3 m/S 761 mmHg 63%
    12:00 +20°C° 0 mm 3 m/S 761 mmHg 60%
    13:00 +20°C° 0 mm 3 m/S 761 mmHg 57%
    14:00 +21°C° 0 mm 3 m/S 761 mmHg 55%
    15:00 +21°C° 0 mm 2 m/S 761 mmHg 59%
    16:00 +20°C° 0 mm 2 m/S 761 mmHg 63%
    17:00 +20°C° 0 mm 2 m/S 761 mmHg 67%
    18:00 +18°C° 0 mm 2 m/S 761 mmHg 72%
    19:00 +18°C° 0 mm 1 m/S 761 mmHg 77%
    20:00 +15°C° 0 mm 1 m/S 761 mmHg 83%
    21:00 +14°C° 0 mm 1 m/S 761 mmHg 85%
    22:00 +13°C° 0 mm 1 m/S 762 mmHg 86%
    23:00 +12°C° 0 mm 1 m/S 762 mmHg 88%

    23 August, Freitag

    Zeit Temperatur Niederschläge Wind Luftdruck Luftfeuchtigkeit
    00:00 +12°C° 0 mm 1 m/S 762 mmHg 87%
    01:00 +12°C° 0 mm 1 m/S 762 mmHg 87%
    02:00 +12°C° 0 mm 1 m/S 762 mmHg 86%
    03:00 +11°C° 0 mm 1 m/S 762 mmHg 87%
    04:00 +11°C° 0 mm 1 m/S 762 mmHg 88%
    05:00 +11°C° 0 mm 1 m/S 762 mmHg 89%
    06:00 +12°C° 0 mm 1 m/S 762 mmHg 85%
    07:00 +14°C° 0 mm 1 m/S 762 mmHg 81%
    08:00 +15°C° 0 mm 1 m/S 762 mmHg 77%
    09:00 +16°C° 0 mm 2 m/S 762 mmHg 72%
    10:00 +17°C° 0 mm 2 m/S 761 mmHg 67%
    11:00 +19°C° 0 mm 2 m/S 761 mmHg 63%
    12:00 +18°C° 0.1 mm 3 m/S 761 mmHg 67%
    13:00 +17°C° 0.1 mm 3 m/S 761 mmHg 72%
    14:00 +15°C° 0.1 mm 4 m/S 761 mmHg 76%
    15:00 +16°C° 0.1 mm 3 m/S 761 mmHg 79%
    16:00 +16°C° 0.1 mm 3 m/S 761 mmHg 82%
    17:00 +16°C° 0.1 mm 2 m/S 760 mmHg 85%
    18:00 +15°C° 0.1 mm 2 m/S 760 mmHg 88%
    19:00 +14°C° 0.1 mm 2 m/S 761 mmHg 92%
    20:00 +13°C° 0.1 mm 2 m/S 761 mmHg 95%
    21:00 +13°C° 0 mm 2 m/S 761 mmHg 96%
    22:00 +13°C° 0 mm 2 m/S 761 mmHg 96%
    23:00 +12°C° 0 mm 2 m/S 761 mmHg 97%
    Mehr zeigen